Time,TemperatureF,DewpointF,PressureIn,WindDirection,WindDirectionDegrees,WindSpeedMPH,WindSpeedGustMPH,Humidity,HourlyPrecipIn,Conditions,Clouds,dailyrainin,SoftwareType,DateUTC
2013-09-01 00:12:00,68.0,64.0,29.78,SE,140,0.0,3.0,88,0.00,,,0.00,,2013-09-01 05:12:00,
2013-09-01 00:23:00,68.0,65.0,29.75,SE,131,2.0,5.0,89,0.00,,,0.00,,2013-09-01 05:23:00,
2013-09-01 00:52:00,68.0,65.0,29.77,SSE,153,0.0,3.0,89,0.00,,,0.00,,2013-09-01 05:52:00,
2013-09-01 01:12:00,68.0,65.0,29.75,SSE,150,1.0,3.0,90,0.00,,,0.00,,2013-09-01 06:12:00,
2013-09-01 01:22:00,67.0,64.0,29.75,SSE,168,1.0,3.0,90,0.00,,,0.00,,2013-09-01 06:22:00,
2013-09-01 01:42:00,67.0,64.0,29.74,SSE,153,1.0,4.0,90,0.00,,,0.00,,2013-09-01 06:42:00,
2013-09-01 01:52:00,67.0,64.0,29.73,SE,141,0.0,4.0,91,0.00,,,0.00,,2013-09-01 06:52:00,
2013-09-01 02:12:00,67.0,65.0,29.73,South,188,0.0,4.0,92,0.00,,,0.00,,2013-09-01 07:12:00,
2013-09-01 02:22:00,66.0,64.0,29.74,South,175,0.0,3.0,92,0.00,,,0.00,,2013-09-01 07:22:00,
2013-09-01 02:42:00,67.0,65.0,29.74,SSE,165,0.0,3.0,92,0.00,,,0.00,,2013-09-01 07:42:00,
2013-09-01 02:52:00,67.0,65.0,29.75,SSE,165,0.0,1.0,92,0.00,,,0.00,,2013-09-01 07:52:00,
2013-09-01 03:11:00,67.0,65.0,29.75,SSE,165,0.0,1.0,92,0.00,,,0.00,,2013-09-01 08:11:00,
2013-09-01 03:22:00,67.0,65.0,29.74,SE,140,1.0,3.0,92,0.00,,,0.00,,2013-09-01 08:22:00,
2013-09-01 03:43:00,67.0,65.0,29.75,South,176,1.0,4.0,92,0.00,,,0.00,,2013-09-01 08:43:00,
2013-09-01 03:52:00,67.0,65.0,29.75,South,183,1.0,4.0,92,0.00,,,0.00,,2013-09-01 08:52:00,
2013-09-01 04:11:00,67.0,65.0,29.74,SSW,195,1.0,4.0,92,0.00,,,0.00,,2013-09-01 09:11:00,
2013-09-01 04:21:00,67.0,65.0,29.75,WSW,238,1.0,5.0,93,0.00,,,0.00,,2013-09-01 09:21:00,
2013-09-01 04:53:00,67.0,65.0,29.74,South,184,1.0,4.0,93,0.00,,,0.00,,2013-09-01 09:53:00,
2013-09-01 05:12:00,67.0,65.0,29.73,SW,223,0.0,2.0,94,0.04,,,0.04,,2013-09-01 10:12:00,
2013-09-01 05:23:00,67.0,66.0,29.72,SW,223,0.0,0.0,95,0.04,,,0.04,,2013-09-01 10:23:00,
2013-09-01 05:42:00,67.0,66.0,29.73,South,178,0.0,2.0,95,0.04,,,0.04,,2013-09-01 10:42:00,
2013-09-01 05:53:00,67.0,66.0,29.73,SSE,165,1.0,2.0,96,0.03,,,0.04,,2013-09-01 10:53:00,
2013-09-01 06:12:00,67.0,66.0,29.73,SSE,163,0.0,3.0,96,0.00,,,0.04,,2013-09-01 11:12:00,
2013-09-01 06:22:00,67.0,66.0,29.72,SSE,163,0.0,3.0,96,0.00,,,0.04,,2013-09-01 11:22:00,
2013-09-01 06:52:00,67.0,66.0,29.73,WNW,288,2.0,5.0,96,0.04,,,0.08,,2013-09-01 11:52:00,
2013-09-01 07:12:00,67.0,66.0,29.74,NW,304,1.0,5.0,96,0.08,,,0.12,,2013-09-01 12:12:00,
2013-09-01 07:22:00,67.0,66.0,29.74,NE,56,1.0,3.0,96,0.09,,,0.13,,2013-09-01 12:22:00,
2013-09-01 07:42:00,67.0,66.0,29.74,SE,140,0.0,2.0,97,0.09,,,0.13,,2013-09-01 12:42:00,
2013-09-01 07:52:00,67.0,66.0,29.73,SE,140,0.0,0.0,97,0.05,,,0.13,,2013-09-01 12:52:00,
2013-09-01 08:11:00,68.0,67.0,29.73,SE,141,0.0,1.0,97,0.00,,,0.13,,2013-09-01 13:11:00,
2013-09-01 08:21:00,68.0,67.0,29.73,SSE,148,1.0,3.0,97,0.00,,,0.13,,2013-09-01 13:21:00,
2013-09-01 08:52:00,68.0,67.0,29.73,South,185,2.0,3.0,97,0.00,,,0.13,,2013-09-01 13:52:00,
2013-09-01 09:11:00,68.0,67.0,29.74,West,279,1.0,3.0,97,0.00,,,0.13,,2013-09-01 14:11:00,
2013-09-01 09:22:00,70.0,69.0,29.73,West,262,2.0,7.0,97,0.00,,,0.13,,2013-09-01 14:22:00,
2013-09-01 09:42:00,70.0,69.0,29.74,WSW,246,2.0,3.0,96,0.00,,,0.13,,2013-09-01 14:42:00,
2013-09-01 09:52:00,70.0,68.0,29.74,WNW,286,3.0,6.0,94,0.00,,,0.13,,2013-09-01 14:52:00,
2013-09-01 10:11:00,71.0,68.0,29.74,West,274,5.0,9.0,91,0.00,,,0.13,,2013-09-01 15:11:00,
2013-09-01 10:23:00,71.0,67.0,29.74,West,260,4.0,8.0,88,0.00,,,0.13,,2013-09-01 15:23:00,
2013-09-01 10:44:00,71.0,67.0,29.74,West,265,3.0,6.0,88,0.00,,,0.13,,2013-09-01 15:44:00,
2013-09-01 10:55:00,72.0,68.0,29.74,NW,305,3.0,8.0,87,0.00,,,0.13,,2013-09-01 15:55:00,
2013-09-01 11:14:00,73.0,67.0,29.74,WNW,286,5.0,10.0,82,0.00,,,0.13,,2013-09-01 16:14:00,
2013-09-01 11:24:00,73.0,67.0,29.74,NW,304,3.0,10.0,82,0.00,,,0.13,,2013-09-01 16:24:00,
2013-09-01 11:43:00,73.0,66.0,29.74,West,273,6.0,10.0,79,0.00,,,0.13,,2013-09-01 16:43:00,
2013-09-01 11:53:00,73.0,66.0,29.74,West,273,6.0,10.0,79,0.00,,,0.13,,2013-09-01 16:53:00,
2013-09-01 12:03:00,73.0,66.0,29.74,West,273,6.0,10.0,79,0.00,,,0.13,,2013-09-01 17:03:00,
2013-09-01 12:42:00,74.0,64.0,29.74,West,279,6.0,15.0,71,0.00,,,0.13,,2013-09-01 17:42:00,
2013-09-01 12:52:00,75.0,65.0,29.75,WNW,286,7.0,12.0,71,0.00,,,0.13,,2013-09-01 17:52:00,
2013-09-01 13:13:00,75.0,64.0,29.75,WNW,288,8.0,14.0,69,0.00,,,0.13,,2013-09-01 18:13:00,
2013-09-01 13:22:00,76.0,63.0,29.75,NNE,17,7.0,14.0,64,0.00,,,0.13,,2013-09-01 18:22:00,
2013-09-01 13:42:00,76.0,64.0,29.75,West,272,7.0,15.0,66,0.00,,,0.13,,2013-09-01 18:42:00,
2013-09-01 13:52:00,76.0,62.0,29.75,NW,309,8.0,16.0,61,0.00,,,0.13,,2013-09-01 18:52:00,
2013-09-01 14:12:00,77.0,62.0,29.75,WNW,293,8.0,15.0,60,0.00,,,0.13,,2013-09-01 19:12:00,
2013-09-01 14:22:00,77.0,62.0,29.75,NW,311,7.0,14.0,60,0.00,,,0.13,,2013-09-01 19:22:00,
2013-09-01 14:52:00,76.0,61.0,29.76,North,10,7.0,19.0,60,0.00,,,0.13,,2013-09-01 19:52:00,
2013-09-01 15:12:00,75.0,59.0,29.77,North,11,7.0,19.0,58,0.00,,,0.13,,2013-09-01 20:12:00,
2013-09-01 15:22:00,75.0,60.0,29.77,WNW,294,9.0,17.0,60,0.00,,,0.13,,2013-09-01 20:22:00,
2013-09-01 15:42:00,75.0,61.0,29.76,WNW,290,8.0,16.0,62,0.00,,,0.13,,2013-09-01 20:42:00,
2013-09-01 15:52:00,76.0,61.0,29.76,NW,311,6.0,11.0,60,0.00,,,0.13,,2013-09-01 20:52:00,
2013-09-01 16:22:00,76.0,61.0,29.76,NW,304,5.0,11.0,60,0.00,,,0.13,,2013-09-01 21:22:00,
2013-09-01 16:55:00,76.0,61.0,29.76,West,275,6.0,14.0,59,0.00,,,0.13,,2013-09-01 21:55:00,
2013-09-01 17:14:00,75.0,61.0,29.77,NNW,333,6.0,13.0,61,0.00,,,0.13,,2013-09-01 22:14:00,
2013-09-01 17:24:00,75.0,61.0,29.77,WNW,283,6.0,10.0,62,0.00,,,0.13,,2013-09-01 22:24:00,
2013-09-01 17:53:00,74.0,61.0,29.78,North,5,3.0,8.0,64,0.00,,,0.13,,2013-09-01 22:53:00,
2013-09-01 18:12:00,74.0,61.0,29.78,NW,317,4.0,8.0,65,0.00,,,0.13,,2013-09-01 23:12:00,
2013-09-01 18:23:00,74.0,61.0,29.78,North,355,4.0,8.0,65,0.00,,,0.13,,2013-09-01 23:23:00,
2013-09-01 18:42:00,74.0,61.0,29.78,NNW,336,4.0,9.0,64,0.00,,,0.13,,2013-09-01 23:42:00,
2013-09-01 18:53:00,74.0,61.0,29.78,WNW,298,4.0,9.0,64,0.00,,,0.13,,2013-09-01 23:53:00,
2013-09-01 19:11:00,75.0,62.0,29.79,WNW,287,2.0,8.0,64,0.00,,,0.13,,2013-09-02 00:11:00,
2013-09-01 19:22:00,74.0,62.0,29.79,NW,319,2.0,8.0,66,0.00,,,0.13,,2013-09-02 00:22:00,
2013-09-01 19:42:00,73.0,62.0,29.79,West,281,2.0,6.0,68,0.00,,,0.13,,2013-09-02 00:42:00,
2013-09-01 19:52:00,72.0,61.0,29.79,NW,313,2.0,5.0,69,0.00,,,0.13,,2013-09-02 00:52:00,
2013-09-01 20:12:00,72.0,62.0,29.80,WNW,287,3.0,5.0,70,0.00,,,0.13,,2013-09-02 01:12:00,
2013-09-01 20:22:00,71.0,62.0,29.80,NW,308,3.0,5.0,72,0.00,,,0.13,,2013-09-02 01:22:00,
2013-09-01 20:42:00,70.0,61.0,29.81,WNW,286,2.0,5.0,72,0.00,,,0.13,,2013-09-02 01:42:00,
2013-09-01 20:52:00,70.0,61.0,29.81,NW,309,1.0,3.0,74,0.00,,,0.13,,2013-09-02 01:52:00,
2013-09-01 21:12:00,70.0,62.0,29.82,WNW,302,2.0,4.0,75,0.00,,,0.13,,2013-09-02 02:12:00,
2013-09-01 21:22:00,70.0,61.0,29.82,NW,313,5.0,10.0,74,0.00,,,0.13,,2013-09-02 02:22:00,
2013-09-01 21:42:00,69.0,61.0,29.83,NW,311,3.0,9.0,76,0.00,,,0.13,,2013-09-02 02:42:00,
2013-09-01 21:52:00,69.0,62.0,29.83,North,355,4.0,9.0,78,0.00,,,0.13,,2013-09-02 02:52:00,
2013-09-01 22:11:00,68.0,61.0,29.83,NNW,336,3.0,10.0,79,0.00,,,0.13,,2013-09-02 03:11:00,
2013-09-01 22:22:00,68.0,61.0,29.84,North,351,4.0,9.0,79,0.00,,,0.13,,2013-09-02 03:22:00,
2013-09-01 22:44:00,67.0,61.0,29.84,North,355,4.0,9.0,80,0.00,,,0.13,,2013-09-02 03:44:00,
2013-09-01 22:56:00,67.0,61.0,29.85,NNW,327,4.0,9.0,81,0.00,,,0.13,,2013-09-02 03:56:00,
2013-09-01 23:14:00,67.0,61.0,29.85,WNW,283,4.0,11.0,81,0.00,,,0.13,,2013-09-02 04:14:00,
2013-09-01 23:54:00,66.0,61.0,29.86,West,279,3.0,7.0,83,0.00,,,0.13,,2013-09-02 04:54:00,